TimeCST,TemperatureF,Dew PointF,Humidity,Sea Level PressureIn,VisibilityMPH,Wind Direction,Wind SpeedMPH,Gust SpeedMPH,PrecipitationIn,Events,Conditions,WindDirDegrees,DateUTC
12:56 AM,23.0,-9999,N/A,30.24,3.0,Calm,Calm,-,N/A,,Clear,0,2013-11-08 06:56:00
1:56 AM,21.0,-9999,N/A,30.25,4.0,Calm,Calm,-,N/A,,Haze,0,2013-11-08 07:56:00
2:56 AM,21.0,-9999,N/A,30.25,3.0,Calm,Calm,-,N/A,,Clear,0,2013-11-08 08:56:00
3:56 AM,19.0,-9999,N/A,30.26,4.0,Calm,Calm,-,N/A,,Haze,0,2013-11-08 09:56:00
4:56 AM,19.0,-9999,N/A,30.27,4.0,Calm,Calm,-,N/A,,Haze,0,2013-11-08 10:56:00
5:56 AM,18.1,-9999,N/A,30.27,5.0,Calm,Calm,-,N/A,,Haze,0,2013-11-08 11:56:00
6:56 AM,18.1,-9999,N/A,30.28,5.0,Calm,Calm,-,N/A,,Haze,0,2013-11-08 12:56:00
7:56 AM,23.0,-9999,N/A,30.29,3.0,Calm,Calm,-,N/A,,Clear,0,2013-11-08 13:56:00
8:56 AM,30.0,-9999,N/A,30.28,4.0,SW,3.5,-,N/A,,Haze,220,2013-11-08 14:56:00
9:56 AM,34.0,-9999,N/A,30.26,9.0,Variable,4.6,-,N/A,,Clear,0,2013-11-08 15:56:00
10:56 AM,36.9,-9999,N/A,30.24,10.0,SSE,6.9,-,N/A,,Clear,160,2013-11-08 16:56:00
11:56 AM,38.8,-9999,N/A,30.19,10.0,South,4.6,-,N/A,,Clear,170,2013-11-08 17:56:00
12:56 PM,38.8,-9999,N/A,30.17,10.0,SSE,9.2,-,N/A,,Clear,160,2013-11-08 18:56:00
1:56 PM,39.9,-9999,N/A,30.14,10.0,SSE,6.9,-,N/A,,Scattered Clouds,150,2013-11-08 19:56:00
2:56 PM,41.0,-9999,N/A,30.12,10.0,SE,5.8,-,N/A,,Partly Cloudy,140,2013-11-08 20:56:00
3:56 PM,39.9,-9999,N/A,30.07,10.0,SE,6.9,-,N/A,,Clear,130,2013-11-08 21:56:00
4:56 PM,39.9,-9999,N/A,30.04,10.0,ESE,8.1,-,N/A,,Clear,120,2013-11-08 22:56:00
5:56 PM,38.8,-9999,N/A,30.01,10.0,ESE,8.1,-,N/A,,Clear,120,2013-11-08 23:56:00
6:56 PM,39.9,-9999,N/A,30.00,10.0,SE,10.4,-,N/A,,Partly Cloudy,140,2013-11-09 00:56:00
7:56 PM,41.0,-9999,N/A,29.96,10.0,SSE,11.5,18.4,N/A,,Partly Cloudy,150,2013-11-09 01:56:00
8:56 PM,41.9,-9999,N/A,29.93,10.0,SSE,12.7,19.6,N/A,,Partly Cloudy,160,2013-11-09 02:56:00
9:35 PM,41.0,-9999,N/A,29.88,8.0,SSE,11.5,-,0.00,Rain,Light Rain,160,2013-11-09 03:35:00
9:43 PM,41.0,-9999,N/A,29.87,10.0,SSE,10.4,-,0.00,Rain,Light Rain,150,2013-11-09 03:43:00
9:56 PM,41.0,-9999,N/A,29.86,10.0,SSE,9.2,-,0.00,Rain,Light Rain,150,2013-11-09 03:56:00
10:56 PM,41.0,-9999,N/A,29.80,10.0,SSE,10.4,-,0.00,,Partly Cloudy,150,2013-11-09 04:56:00
11:56 PM,41.0,-9999,N/A,29.77,7.0,SSE,6.9,-,N/A,Rain,Light Rain,160,2013-11-09 05:56:00